User: anonymous
Location: Brno
(49.2000°N, 16.6330°E)
Time: 13:11:01
(UTC+02:00)
Language:

Meteor 1-4 Rocket - Orbit

View from above orbital plane
View from above orbital plane
View from above satellite
View from above satellite

Ground track
Ground track

The orbit data is extracted from the following two-line orbital elements,

1 04394U 70037B   14206.10419677  .00001629  00000-0  70776-4 0  6306
2 04394 081.2466 171.9881 0049787 122.0430 238.5652 15.20515742403472
Epoch (UTC): 25 July 2014 02:30:02
Eccentricity: 0.0049787
inclination: 81.2466°
perigee height: 470 km
apogee height: 538 km
right ascension of ascending node: 171.9881°
argument of perigee: 122.0430°
revolutions per day: 15.20515742
mean anomaly at epoch: 238.5652°
orbit number at epoch: 40347

The dashed part of the orbit path shows where the satellite is in the earth's shadow,  

DLR